sat.trackr.live / text

‹ back to catalog

STARLINK-11204 [DTC]

NORAD 60931 · 2024-155H

PAYLOAD ACTIVE UNKNOWN

§ Identity

Operator
Country
US
Launch date
2024-08-31
Launch site
AFWTR
Launch vehicle
Mass (kg)
RCS (m²)

Purposes: comms

External: N2YO · Heavens-Above · Gunter

§ Orbital elements

Epoch: 2026-09-21T18:52:12.704160Z

Period
91.74 min
Inclination
53.1583°
Eccentricity
0.0000658
Mean motion
15.69713677 rev/d
Perigee alt
359.3 km
Apogee alt
360.2 km
Semi-major
6,737.9 km
B*
-3.8140e-6
RAAN
94.4133°
Arg perigee
91.9742°
Mean anomaly
268.1351°
Rev number
11,920

§ Raw data

STARLINK-11204 [DTC]1 60931U 24155H   26264.78625815 -.00001050  00000+0 -38140-5 0  99962 60931  53.1583  94.4133 0000658  91.9742 268.1351 15.69713677119202

JSON: /api/v1/satellites/60931 · /tle

For live sub-satellite position, see the globe view (requires WebGL).

§ Visibility from observer

Set your observer location to see the next 7 days of passes ≥ 10°. The values pass through the URL so the page stays shareable.

No JS? Fill the form by hand. The geolocation button needs JavaScript.